OBJECT C, 61240

Orbit data source: Space-Track

You're viewing an Uncataloged Satellite

Recently launched and/or uncataloged satellites may have evolving metadata. Metadata may include but not limited to: Owner, Maufacturer, Bus, Motor, and Mission.

OBJECT C, 61240 is a satellite owned by Changguang WJ (CN) in SSO that was launched on Tue, 24 Sep 2024 UTC via a LIJIAN-1 launch vehicle from the Jiuquan Satellite Launch Center, China (JSC). Unknown objects in Earth's orbit typically refer to objects detected orbiting the Earth but have not yet been identified or cataloged. These objects could be anything from previously untracked satellites, spent rocket stages, debris from satellite collisions, or even natural meteoroids temporarily captured by Earth's gravity.

Loading next visibility...
Identifier
61240, 2024-174C
Orbit
SSO
Last TLE update
6 hours ago
Origin
Flag of CNCGSTL (CN / PRC)
Manufacturer
Changguang WJ
Mission
Operational Commercial Radar Imaging
Bus & Motor
JL-1, Unknown motor
Mass
~250 kg wet, ~250 kg dry
Launch date (UTC)
2024-09-24 (9 months ago)
Launch vehicle
LIJIAN-1
Launch site
Jiuquan Satellite Launch Center, China (JSC)
Object type
Unknown
Shape & HBR
Box + 2 Pan, 1.5 m
Radar Cross Section
0.514 m², Large (>1 m²)

Expand to show TLE details & history

TLE from 6 hours ago
0 OBJECT C
1 61240U 24174C   25182.17598802  .00004522  00000-0  20736-3 0  9993
2 61240  97.4452 189.4238 0015054  33.9923 326.2274 15.20857626 42346
Epoch: 2025-07-01T04:13Z
TLE epoch observation values (Epoch: 2025-07-01T04:13:25.364Z)
Latitude
-0.00003°
Longitude
-153.40708°
Altitude
497.735 km
Speed
7.62 km/s
True Right ascension
12h 37m 41s
True Declination
0° 00' 00"
Sunlit
Object was in daylight at epoch
Visualization orbit readout
Latitude
-56.79159°
Longitude
15.37914°
Altitude
534.745 km
Speed
7.589 km/s
Apparent Right ascension
06h 16m 55s
Apparent Declination
-74° 30' 13"
Sunlit
Object is in full shadow
Visualization observer readout
Local Sidereal Time
21:38:26
Azimuth
161.903° S
Elevation
-48.505°
Doppler factor
1
Orbital elements
Apogee altitude
510.573 km
Perigee altitude
489.864 km
Semi-major axis
6,878.356 km
Eccentricity
0.00151
Inclination
97.4452°
RAAN
189.4238°
Arg. of periapsis
33.9923°
True anomaly
Unknown
Mean anomaly
326.2274°
Eccentric anomaly
Unknown
Mean motion
3.80466 °/min
Orbital period
94.62 mins
BSTAR
0.00020736
Loading maneuver chart data...
Loading SW <> Apogee altitude chart data...
Loading historical data...
Loading historical data...
Loading historical data...
Loading historical data...
Loading historical data...
Loading historical data...
Loading historical data...

OBJECT C Visibility forecast

Observer location: undefined°, undefined°

Span
Click to sort rows by Start time (UTC) header in descending order
Start Az.
Max El. time (UTC)
Max El. Az.
Max El.
End time (UTC)
End Az.
5 mins2025-07-01 12:42:04.095Z50.317° ENE2025-07-01 12:44:04.095Z94.107° ESE23.061°2025-07-01 12:47:04.095Z151.833° SSE
6 mins2025-07-02 00:52:04.095Z186.393° SSW2025-07-02 00:55:04.095Z239.977° WSW34.828°2025-07-02 00:58:04.095Z330.42° NNW
|